Location: Godiavel Galaoual
(15.2485°N, 12.6604°W)
Time: 09:43:57
(UTC+00:00)

Intelsat 5-1 Rocket - Pass Details

Date: 27 February 2020
Orbit: 308 x 7623 km, 23.9° (Epoch: 28 March)

Event Time Altitude Azimuth Distance (km) Brightness Sun altitude
Rises 21:41:37 0° 292° (WNW) 3,500 6.7 -40.2°
Reaches altitude 10° 21:43:22 10° 296° (WNW) 2,920 6.1 -40.7°
Enters shadow 21:49:02 61° 336° (NNW) 1,988 4.4 -42.0°
